Regional Weather Roundup
Issued by NWS Kansas City/Pleasant Hill, MO

Home | Current Version | Previous Version | Graphics & Text | Print | Product List | Glossary Off
Versions: 1 2 3 4 5 6 7 8 9 10 11 12 13 14 15 16 17 18 19 20 21 22 23 24 25 26 27 28

000
ASUS43 KEAX 272010
RWREAX

WEATHER ROUNDUP FOR EASTERN KANSAS AND NORTHWEST MISSOURI
NATIONAL WEATHER SERVICE KANSAS CITY/PLEASANT HILL MO
300 PM CDT SAT MAY 27 2017

KSZ040-057-103>105-MOZ028-029-037-043-272100-
...KANSAS CITY METROPOLITAN AREA...

CITY           SKY/WX    TMP DP  RH WIND       PRES   REMARKS
K.C. INTL      PTSUNNY   69  62  78 SW9       29.83R
K.C. DOWNTOWN  CLOUDY    69  62  78 N5        29.80R
LEES SUMMIT    CLOUDY    67  60  78 E6        29.81R
OLATHE - IXD   CLOUDY    69  59  70 E10       29.81R
OLATHE - OJC   CLOUDY    68  61  78 NE9       29.80R
LAWRENCE       CLOUDY    72  62  71 VRB5      29.82R

$$

MOZ001>008-011>017-020>025-030>033-038>040-044>046-053-054-272100-
...NORTHERN AND CENTRAL MISSOURI...

CITY           SKY/WX    TMP DP  RH WIND       PRES   REMARKS
ST. JOSEPH     CLOUDY    72  66  81 NE3       29.80R
MOSBY          CLOUDY    68  59  73 W3        29.81R
WARRENSBURG    CLOUDY    61  59  94 E6        29.79S
WHITEMAN AFB   NOT AVBL
CLINTON        CLOUDY    59  59 100 E9        29.80F
SEDALIA        LGT RAIN  63  61  93 E12       29.82F
WARSAW         NOT AVBL
CHILLICOTHE      N/A     71  62  73 N5        29.78F
KIRKSVILLE     CLOUDY    79  61  53 SE12      29.82F

$$

MOZ041-047>049-056>058-063>065-088>090-097-272100-
...EASTERN AND SOUTHERN MISSOURI...

CITY           SKY/WX    TMP DP  RH WIND       PRES   REMARKS
ST. LOUIS INTL TSTM      79  65  62 N8        29.86R
SPIRIT OF STL  CLOUDY    71  70  96 SW5       29.86S
COLUMBIA       CLOUDY    69  67  93 N6        29.86F THUNDER
JEFFERSON CITY TSTM      72  67  84 CALM      29.83F
ROLLA          CLOUDY    74  66  76 SE6       29.83F
OSAGE BEACH    LGT RAIN  75  70  83 E3        29.81F
SPRINGFIELD    TSTM      66  64  93 S12G21    29.78R FOG
BRANSON        PTSUNNY   82  70  65 S8        29.79F
JOPLIN         CLOUDY    80  73  79 E7        29.74F
WEST PLAINS    CLOUDY    84  72  67 S12       29.81F

$$

IAZ060-094-KSZ022-034>040-054-083-096-NEZ052-066-093-272100-
...KANSAS...SOUTHEAST NEBRASKA AND IOWA...

CITY           SKY/WX    TMP DP  RH WIND       PRES   REMARKS
TOPEKA         MOSUNNY   76  64  66 NW5       29.82R
MANHATTAN      MOSUNNY   75  64  68 NW7       29.82R
EMPORIA        MOSUNNY   79  66  64 E15       29.79R
CHANUTE        CLOUDY    75  65  70 NE12      29.79R
WICHITA        MOSUNNY   80  63  55 E9        29.79F
OMAHA          PTSUNNY   70  57  63 NE13      29.84F
LINCOLN        SUNNY     73  58  59 N8        29.86F
FALLS CITY     PTSUNNY   70  61  73 NE9       29.83R
LAMONI         CLOUDY    69  60  73 NW6       29.83S
DES MOINES     CLOUDY    64  60  87 NE9       29.85R

$$





USA.gov is the U.S. government's official web portal to all federal, state and local government web resources and services.